Flag for U.S.A. Weather past 2 weeks in Houston, Texas, U.S.A.

Now
66 °F

Passing clouds.


Feels Like: 66 °F
Forecast: 60 / 78 °F
Wind: No wind

Location: Houston Hobby Airport

Current Time: Apr 21, 2015 at 12:54:54 AM

Latest Report: Apr 20, 2015 at 11:53 PM


Visibility: 10 mi

Pressure: 30.01 "Hg

Humidity: 63%

Dew point: 53 °F

Location of HoustonLocation

Historic Weather in Houston — Graph

°F

Houston temperature yesterday

Maximum temperature yesterday: 74 °F (at 3:53 PM)
Minimum temperature yesterday: 61 °F (at 7:53 AM)
Average temperature yesterday: 67 °F

Past Weeks' High & Low Weather Summary

 TemperatureHumidityPressure
High86 °F (Apr 13, 3:53 PM)100% (Apr 7, 2:53 AM)30.11 "Hg (Apr 7, 2:53 AM)
Low61 °F (Apr 15, 6:53 AM)37% (Apr 20, 2:53 PM)29.72 "Hg (Apr 18, 6:53 PM)
Average73 °F82%29.95 "Hg
* Reported Apr 5 10:53 PM — Apr 20 10:53 PM, Houston, Weather by CustomWeather, © 2015

Note: Actual official high and low records may vary slightly from our data, if they occured in-between our weather recording intervals... More about our weather records

Advertising

Houston weather history for previous 24 hours

 ConditionsComfort  
Time TempWeatherWind HumidityBarometerVisibility
10:53 PM
Mon, Apr 20
65 °FPassing clouds.No wind68%30.01 "Hg10 mi
9:53 PM65 °FOvercast.No wind66%30.00 "Hg10 mi
8:53 PM65 °FPartly cloudy.No wind66%29.98 "Hg10 mi
7:53 PM69 °FPartly sunny.6 mph47%29.96 "Hg10 mi
6:53 PM71 °FPartly sunny.8 mph44%29.94 "Hg10 mi
5:53 PM72 °FBroken clouds.12 mph41%29.92 "Hg10 mi
4:53 PM73 °FMostly cloudy.6 mph40%29.92 "Hg10 mi
3:53 PM74 °FBroken clouds.8 mph37%29.93 "Hg10 mi
2:53 PM73 °FOvercast.13 mph37%29.94 "Hg10 mi
1:53 PM72 °FBroken clouds.10 mph40%29.97 "Hg10 mi
12:53 PM70 °FOvercast.9 mph38%29.99 "Hg10 mi
11:53 AM68 °FOvercast.9 mph39%30.01 "Hg10 mi
10:53 AM66 °FPartly sunny.16 mph43%30.01 "Hg10 mi
9:53 AM64 °FPartly sunny.16 mph49%29.99 "Hg10 mi
8:53 AM63 °FPartly sunny.15 mph50%29.97 "Hg10 mi
7:53 AM61 °FPartly sunny.17 mph58%29.96 "Hg10 mi
6:53 AM62 °FPartly cloudy.15 mph70%29.93 "Hg10 mi
5:53 AM63 °FPassing clouds.20 mph70%29.90 "Hg10 mi
4:53 AM64 °FPassing clouds.15 mph70%29.89 "Hg10 mi
3:53 AM66 °FPassing clouds.16 mph70%29.87 "Hg10 mi
2:53 AM67 °FPassing clouds.8 mph85%29.85 "Hg10 mi
1:53 AM66 °FPassing clouds.7 mph90%29.84 "Hg10 mi
12:53 AM67 °FPassing clouds.7 mph87%29.85 "Hg10 mi
Weather by CustomWeather, © 2015

See weather overviewHow to use our weather pages